Gwinn, MI

1:53 PM EDT on July 20, 2017 (GMT -0400)
Sawyer International

Weather History for KSAW - January, 2014

Change the Weather History Date:

Sunday, January 19, 2014

  Actual Average (KESC) Record (KESC)
Temperature  
Mean Temperature 17 °F -  
Max Temperature 26 °F 24 °F 41 °F (1991)
Min Temperature 7 °F 8 °F -20 °F (1984)
Degree Days  
Heating Degree Days 48    
Moisture  
Dew Point 12 °F    
Average Humidity 83    
Maximum Humidity 93    
Minimum Humidity 73    
Precipitation  
Precipitation 0.00 in - - ()
Sea Level Pressure  
Sea Level Pressure 29.43 in    
Wind  
Wind Speed 12 mph (WNW)    
Max Wind Speed 17 mph    
Max Gust Speed 22 mph    
Visibility 7 miles    
Events Snow    
Averages and records for this station are not official NWS values.
T = Trace of Precipitation, MM = Missing Value Source: NWS Daily Summary

Daily Weather History Graph

Daily Weather History Graph

Search for Another Location

Airport or City:

Trip Planner

Search our weather history database for the weather conditions in past years. The results will help you decide how hot, cold, wet, or windy it might be!

Date:

Astronomy

Jan. 19, 2014 Rise Set
Actual Time 8:25 AM EST 5:35 PM EST
Civil Twilight 7:52 AM EST 6:08 PM EST
Nautical Twilight 7:15 AM EST 6:45 PM EST
Astronomical Twilight 6:39 AM EST 7:21 PM EST
Moon 9:28 PM EST (1/19) 9:42 AM EST (1/19)
Length of Visible Light 10h 16m
Length of Day
9h 09m
Waning Gibbous, 89% of the Moon is Illuminated
Jan 19
Waning Gibbous
Jan 24
Last Quarter
Jan 30
New
Feb 6
First Quarter
Feb 14
Full

Hourly Weather History & Observations

Time (EST) Temp. Windchill Dew Point Humidity Pressure Visibility Wind Dir Wind Speed Gust Speed Precip Events Conditions
12:16 AM 13.6 °F 0.0 °F 7.7 °F 77% 29.51 in 10.0 mi SW 11.5 mph - N/A   Overcast
12:37 AM 14.0 °F -0.2 °F 7.7 °F 76% 29.51 in 10.0 mi SW 12.7 mph - N/A   Overcast
12:57 AM 14.5 °F 0.5 °F 7.9 °F 75% 29.48 in 10.0 mi SW 12.7 mph - N/A   Overcast
1:16 AM 14.9 °F 1.6 °F 9.1 °F 78% 29.46 in 4.0 mi SW 11.5 mph - N/A Snow Light Snow
1:37 AM 15.1 °F -0.6 °F 10.4 °F 82% 29.44 in 5.0 mi SW 16.1 mph - N/A Snow Light Snow
1:56 AM 15.1 °F 1.1 °F 10.9 °F 84% 29.42 in 7.0 mi SW 12.7 mph - N/A Snow Light Snow
2:17 AM 15.6 °F 1.2 °F 11.7 °F 84% 29.40 in 4.0 mi SSW 13.8 mph - N/A Snow Light Snow
2:36 AM 15.8 °F 1.4 °F 12.2 °F 86% 29.39 in 7.0 mi SW 13.8 mph 18.4 mph N/A Snow Light Snow
2:57 AM 16.3 °F 3.4 °F 12.7 °F 86% 29.39 in 7.0 mi SW 11.5 mph - N/A Snow Light Snow
3:17 AM 16.7 °F 3.2 °F 13.1 °F 86% 29.39 in 10.0 mi WSW 12.7 mph - N/A Snow Light Snow
3:37 AM 16.7 °F 4.5 °F 13.5 °F 87% 29.38 in 10.0 mi WSW 10.4 mph - N/A Snow Light Snow
3:56 AM 17.6 °F 5.7 °F 14.0 °F 86% 29.37 in 10.0 mi WSW 10.4 mph - N/A Snow Light Snow
4:17 AM 18.5 °F 6.1 °F 14.9 °F 86% 29.35 in 5.0 mi WSW 11.5 mph - N/A Snow Light Snow
4:36 AM 19.0 °F 6.8 °F 15.4 °F 86% 29.34 in 4.0 mi WSW 11.5 mph - N/A Snow Light Snow
4:57 AM 19.4 °F 7.9 °F 15.8 °F 86% 29.33 in 10.0 mi West 10.4 mph - N/A Snow Light Snow
5:17 AM 20.1 °F 6.9 °F 16.3 °F 85% 29.32 in 10.0 mi WSW 13.8 mph - N/A Snow Light Snow
5:37 AM 20.8 °F 6.8 °F 16.7 °F 84% 29.32 in 10.0 mi WSW 16.1 mph - N/A   Overcast
5:57 AM 20.8 °F 7.3 °F 16.9 °F 85% 29.32 in 10.0 mi West 15.0 mph - N/A   Overcast
6:51 AM 21.2 °F 10.1 °F 17.6 °F 86% 29.31 in 10.0 mi WSW 10.4 mph - N/A   Overcast
7:49 AM 21.2 °F 11.7 °F 17.6 °F 86% 29.31 in 10.0 mi WSW 8.1 mph - N/A   Overcast
8:47 AM 21.2 °F 16.4 °F 19.4 °F 93% 29.31 in 7.0 mi West 3.5 mph - N/A   Overcast
9:55 AM 24.8 °F 13.4 °F 21.2 °F 86% 29.33 in 10.0 mi West 12.7 mph - N/A   Overcast
10:46 AM 24.8 °F 15.3 °F 21.2 °F 86% 29.34 in 7.0 mi West 9.2 mph - N/A Snow Light Snow
11:45 AM 26.6 °F 21.2 °F 23.0 °F 86% 29.36 in 7.0 mi NW 4.6 mph - N/A Snow Light Snow
12:47 PM 21.2 °F 7.3 °F 17.6 °F 86% 29.38 in 3.0 mi NNE 16.1 mph 20.7 mph N/A Snow Light Snow
1:55 PM 17.6 °F 3.7 °F 14.0 °F 86% 29.38 in 3.0 mi North 13.8 mph - N/A Snow Light Snow
2:45 PM 17.6 °F 3.2 °F 12.2 °F 79% 29.40 in 3.0 mi North 15.0 mph - N/A Snow Light Snow
3:45 PM 15.8 °F 0.9 °F 12.2 °F 86% 29.43 in 2.0 mi North 15.0 mph 19.6 mph N/A Snow Light Snow
4:50 PM 14.0 °F -2.0 °F 10.4 °F 86% 29.46 in 2.0 mi North 16.1 mph 21.9 mph N/A Snow Light Snow
5:50 PM 12.2 °F -4.8 °F 8.6 °F 85% 29.48 in 4.0 mi North 17.3 mph - N/A Snow Light Snow
6:50 PM 12.2 °F -3.1 °F 6.8 °F 79% 29.50 in 5.0 mi North 13.8 mph - N/A Snow Light Snow
7:50 PM 12.2 °F -3.1 °F 6.8 °F 79% 29.53 in 10.0 mi North 13.8 mph 19.6 mph N/A Snow Light Snow
9:50 PM 10.4 °F -4.1 °F 3.2 °F 73% 29.55 in 5.0 mi NNW 11.5 mph - N/A Snow Light Snow
10:16 PM 9.5 °F -3.5 °F 5.4 °F 83% 29.55 in 1.0 mi North 9.2 mph - N/A Snow Light Snow
10:37 PM 8.8 °F -6.8 °F 3.2 °F 78% 29.56 in 10.0 mi NNW 12.7 mph - N/A   Scattered Clouds
10:57 PM 8.6 °F -4.7 °F 2.7 °F 77% 29.57 in 10.0 mi NNW 9.2 mph 17.3 mph N/A   Scattered Clouds
11:16 PM 8.6 °F -5.5 °F 2.3 °F 76% 29.58 in 10.0 mi North 10.4 mph 16.1 mph N/A   Mostly Cloudy
11:37 PM 8.2 °F -5.1 °F 1.4 °F 74% 29.58 in 10.0 mi North 9.2 mph 17.3 mph N/A   Scattered Clouds
11:56 PM 7.5 °F -6.0 °F 0.9 °F 74% 29.58 in 10.0 mi North 9.2 mph - N/A   Scattered Clouds